IRIDIUM 106 1 41917U 17003A 26146.25794247 .00000026 00000+0 20564-5 0 9991 2 41917 86.3951 97.7233 0002115 76.5900 283.5531 14.34217766490060 IRIDIUM 103 1 41918U 17003B 26146.24525811 .00000005 00000+0 -54014-5 0 9995 2 41918 86.3953 97.6286 0002473 84.9956 275.1522 14.34217587490081 IRIDIUM 109 1 41919U 17003C 26146.25159991 .00000088 00000+0 24219-4 0 9992 2 41919 86.3953 97.6850 0002344 85.7047 274.4416 14.34218241490055 IRIDIUM 102 1 41920U 17003D 26146.28965306 .00000239 00000+0 78301-4 0 9991 2 41920 86.3950 97.5929 0002254 85.6512 274.4942 14.34218930490145 IRIDIUM 105 1 41921U 17003E 26146.24829761 .00000270 00000+0 89512-4 0 9993 2 41921 86.3971 66.0407 0002422 89.7725 270.3748 14.34218808491996 IRIDIUM 104 1 41922U 17003F 26146.30234077 .00000209 00000+0 67500-4 0 9996 2 41922 86.3953 97.6298 0002536 89.0290 271.1197 14.34218513490136 IRIDIUM 114 1 41923U 17003G 26146.30868307 .00000081 00000+0 21760-4 0 9992 2 41923 86.3951 97.6105 0002444 86.1177 274.0298 14.34218297490113 IRIDIUM 108 1 41924U 17003H 26146.26720480 -.00000019 00000+0 -13897-4 0 9992 2 41924 86.3965 65.9243 0002040 85.1698 274.9730 14.34217296491961 IRIDIUM 112 1 41925U 17003J 26146.29599872 .00000045 00000+0 91434-5 0 9996 2 41925 86.3947 97.4588 0002355 87.7620 272.3845 14.34217884490136 IRIDIUM 111 1 41926U 17003K 26146.28331359 .00000245 00000+0 80473-4 0 9992 2 41926 86.3950 97.5342 0002334 84.6923 275.4539 14.34217189490119 IRIDIUM 113 1 42803U 17039A 26146.26327941 .00000064 00000+0 15835-4 0 9995 2 42803 86.3962 331.3471 0002325 91.8040 268.3422 14.34217673468046 IRIDIUM 123 1 42804U 17039B 26146.09544923 .00000256 00000+0 84416-4 0 9992 2 42804 86.3986 2.8734 0002242 82.6867 277.4584 14.34219063466782 IRIDIUM 120 1 42805U 17039C 26146.25694570 .00000084 00000+0 23110-4 0 9998 2 42805 86.3951 331.1350 0002028 88.1203 272.0226 14.34218961468034 IRIDIUM 115 1 42806U 17039D 26146.21002458 .00000086 00000+0 19526-4 0 9991 2 42806 86.4489 331.2805 0002213 82.8180 277.3272 14.43280815471095 IRIDIUM 118 1 42807U 17039E 26146.12716362 .00000042 00000+0 78478-5 0 9992 2 42807 86.3984 2.8583 0002226 86.7724 273.3726 14.34217829466785 IRIDIUM 117 1 42808U 17039F 26146.14619130 .00000066 00000+0 16643-4 0 9991 2 42808 86.3983 2.8082 0002246 83.5388 276.6063 14.34218053466816 IRIDIUM 126 1 42809U 17039G 26146.10179276 .00000078 00000+0 20687-4 0 9996 2 42809 86.3985 2.8776 0002304 86.4827 273.6632 14.34217300466783 IRIDIUM 124 1 42810U 17039H 26146.14384439 .00000006 00000+0 -42896-5 0 9990 2 42810 86.4460 299.5800 0002097 91.3659 268.7782 14.43279875471933 IRIDIUM 128 1 42811U 17039J 26146.16229956 .00000017 00000+0 -10640-5 0 9999 2 42811 86.3982 34.3568 0001962 79.7631 280.3786 14.34217663466821 IRIDIUM 121 1 42812U 17039K 26146.12082637 .00000250 00000+0 82360-4 0 9994 2 42812 86.3985 2.8971 0002074 86.6093 273.5340 14.34219724466669 IRIDIUM 133 1 42955U 17061A 26146.19401081 .00000150 00000+0 46529-4 0 9998 2 42955 86.3991 34.4610 0002235 83.8998 276.2452 14.34219026451626 IRIDIUM 100 1 42956U 17061B 26146.18766992 .00000040 00000+0 71514-5 0 9994 2 42956 86.3986 34.3827 0002177 84.2641 275.8803 14.34217892451629 IRIDIUM 122 1 42957U 17061C 26146.22572618 .00000030 00000+0 35880-5 0 9995 2 42957 86.3988 34.3669 0002283 83.2747 276.8709 14.34217518451632 IRIDIUM 129 1 42958U 17061D 26146.18132371 .00000249 00000+0 81982-4 0 9994 2 42958 86.3989 34.4523 0002300 90.4963 269.6496 14.34220066451640 IRIDIUM 119 1 42959U 17061E 26146.21938367 .00000015 00000+0 -15870-5 0 9994 2 42959 86.3984 34.4320 0002243 84.8719 275.2733 14.34217549451664 IRIDIUM 107 1 42960U 17061F 26146.23841048 .00000046 00000+0 94863-5 0 9999 2 42960 86.3990 34.4453 0002271 78.0149 282.1301 14.34218022451679 IRIDIUM 132 1 42961U 17061G 26146.17498056 .00000167 00000+0 52643-4 0 9993 2 42961 86.3990 34.4515 0002265 84.7047 275.4407 14.34217748451668 IRIDIUM 136 1 42962U 17061H 26146.20669704 .00000064 00000+0 15834-4 0 9995 2 42962 86.3990 34.4447 0002282 84.3227 275.8229 14.34217266451681 IRIDIUM 139 1 42963U 17061J 26146.21303977 .00000053 00000+0 11929-4 0 9993 2 42963 86.3990 34.5037 0002117 82.1858 277.9578 14.34218104451694 IRIDIUM 125 1 42964U 17061K 26146.20035646 .00000060 00000+0 14493-4 0 9995 2 42964 86.3991 34.5696 0002710 81.6452 278.5051 14.34217649451708 IRIDIUM 135 1 43070U 17083A 26146.24425078 -.00000058 00000+0 -27700-4 0 9998 2 43070 86.3952 331.1931 0002061 89.2022 270.9410 14.34216839441005 IRIDIUM 138 1 43071U 17083B 26146.26962190 .00000081 00000+0 21698-4 0 9996 2 43071 86.3970 330.8747 0002438 91.3697 268.7778 14.34217863440994 IRIDIUM 116 1 43072U 17083C 26145.95883257 -.00000041 00000+0 -21837-4 0 9991 2 43072 86.3951 331.2988 0001764 83.6807 276.4589 14.34217619440988 IRIDIUM 130 1 43073U 17083D 26146.06665520 .00000027 00000+0 27192-5 0 9999 2 43073 86.3964 331.5268 0002090 82.7331 277.4102 14.34217814440947 IRIDIUM 151 1 43074U 17083E 26146.04128531 .00000076 00000+0 19968-4 0 9999 2 43074 86.3958 331.3215 0002112 89.5627 270.5811 14.34217955440968 IRIDIUM 134 1 43075U 17083F 26146.21887873 -.00000181 00000+0 -71586-4 0 9993 2 43075 86.3955 331.2551 0002070 85.7823 274.3609 14.34215452440953 IRIDIUM 137 1 43076U 17083G 26145.95248703 .00000061 00000+0 14766-4 0 9999 2 43076 86.3961 331.4589 0001733 94.8400 265.2994 14.34218333440981 IRIDIUM 141 1 43077U 17083H 26146.22522220 .00000080 00000+0 21402-4 0 9996 2 43077 86.3957 331.1766 0002237 90.1725 269.9727 14.34217911441022 IRIDIUM 153 1 43078U 17083J 26145.96809539 .00000229 00000+0 74651-4 0 9997 2 43078 86.3940 299.7640 0002417 92.5183 267.6289 14.34216251442091 IRIDIUM 131 1 43079U 17083K 26146.21253681 .00000038 00000+0 65647-5 0 9992 2 43079 86.3960 331.3663 0002166 90.7250 269.4194 14.34217722440950 IRIDIUM 144 1 43249U 18030A 26145.97443709 .00000208 00000+0 67293-4 0 9995 2 43249 86.3935 299.6914 0002073 91.5157 268.6276 14.34217322426950 IRIDIUM 149 1 43250U 18030B 26146.12031690 .00000015 00000+0 -17801-5 0 9995 2 43250 86.3936 299.5978 0002094 94.0596 266.0839 14.34217720426993 IRIDIUM 157 1 43251U 18030C 26146.13934471 .00000011 00000+0 -31352-5 0 9999 2 43251 86.3937 299.6425 0002048 91.9954 268.1477 14.34217596426976 IRIDIUM 140 1 43252U 18030D 26145.87929811 .00000200 00000+0 64361-4 0 9996 2 43252 86.3939 299.7637 0002181 90.5310 269.6136 14.34219148426999 IRIDIUM 145 1 43253U 18030E 26146.14568690 .00000211 00000+0 68435-4 0 9990 2 43253 86.3939 299.6246 0001875 88.2876 271.8534 14.34219072426965 IRIDIUM 146 1 43254U 18030F 26146.12665977 .00000139 00000+0 42658-4 0 9993 2 43254 86.3940 299.6450 0002065 91.4807 268.6625 14.34217498426973 IRIDIUM 148 1 43255U 18030G 26146.16471464 -.00000078 00000+0 -34889-4 0 9995 2 43255 86.3938 299.6720 0001977 95.0649 265.0772 14.34217557427012 IRIDIUM 142 1 43256U 18030H 26146.13300475 .00000244 00000+0 80166-4 0 9998 2 43256 86.3937 299.5748 0001975 89.6208 270.5214 14.34219699426974 IRIDIUM 150 1 43257U 18030J 26145.96175220 -.00000051 00000+0 -25232-4 0 9998 2 43257 86.3937 299.7622 0002048 91.0022 269.1408 14.34217452426975 IRIDIUM 143 1 43258U 18030K 26146.15202992 .00000092 00000+0 25763-4 0 9990 2 43258 86.3943 299.7742 0002089 90.5540 269.5895 14.34217420426935 IRIDIUM 161 1 43478U 18047C 26146.26044651 .00000328 00000+0 91553-4 0 9992 2 43478 86.4471 97.6385 0002408 91.7213 268.4264 14.43281672421976 IRIDIUM 152 1 43479U 18047D 26146.26428566 -.00000025 00000+0 -15933-4 0 9998 2 43479 86.3947 97.4980 0002270 87.2273 272.9183 14.34217420419344 IRIDIUM 147 1 43480U 18047E 26146.27062777 .00000017 00000+0 -82458-6 0 9997 2 43480 86.3947 97.5000 0002184 84.1924 275.9521 14.34217661419349 IRIDIUM 110 1 43481U 18047F 26146.27697119 .00000095 00000+0 26756-4 0 9994 2 43481 86.3950 97.5886 0002509 92.1762 267.9721 14.34218118419336 IRIDIUM 162 1 43482U 18047G 26146.25414565 .00000317 00000+0 88349-4 0 9998 2 43482 86.4469 97.5324 0002447 84.4454 275.7026 14.43280474421964 IRIDIUM 160 1 43569U 18061A 26146.29257539 .00000040 00000+0 71554-5 0 9994 2 43569 86.3970 65.9500 0002256 87.2259 272.9195 14.34217560410233 IRIDIUM 166 1 43570U 18061B 26146.24817668 .00000036 00000+0 59078-5 0 9998 2 43570 86.3969 65.9193 0002148 82.6312 277.5127 14.34217725410251 IRIDIUM 158 1 43571U 18061C 26146.28622298 .00000257 00000+0 84810-4 0 9992 2 43571 86.3972 65.9131 0002362 84.2879 275.8587 14.34215527410228 IRIDIUM 165 1 43572U 18061D 26146.24183356 .00000015 00000+0 -15602-5 0 9993 2 43572 86.3971 65.9779 0002111 82.4130 277.7306 14.34217803410249 IRIDIUM 155 1 43573U 18061E 26146.27354550 .00000192 00000+0 61323-4 0 9998 2 43573 86.3969 65.8335 0002307 82.5437 277.6021 14.34217248410215 IRIDIUM 154 1 43574U 18061F 26146.18474505 .00000253 00000+0 83184-4 0 9999 2 43574 86.3970 66.0044 0002094 83.3347 276.8087 14.34220462410259 IRIDIUM 163 1 43575U 18061G 26146.30526041 .00000017 00000+0 -92159-6 0 9990 2 43575 86.3969 65.8700 0002363 85.3846 274.7619 14.34217784410249 IRIDIUM 156 1 43576U 18061H 26146.27988942 .00000020 00000+0 33706-7 0 9996 2 43576 86.3968 65.8878 0002267 79.9645 280.1806 14.34217833410237 IRIDIUM 164 1 43577U 18061J 26146.26086657 .00000257 00000+0 84651-4 0 9992 2 43577 86.3969 65.9358 0002050 84.7770 275.3659 14.34220471410274 IRIDIUM 159 1 43578U 18061K 26146.29891726 .00000019 00000+0 -41188-6 0 9994 2 43578 86.3967 65.8572 0002294 86.8746 273.2712 14.34217856410243 IRIDIUM 180 1 43922U 19002A 26146.29841318 .00000055 00000+0 12710-4 0 9991 2 43922 86.3984 2.7490 0002223 89.0017 271.1434 14.34217981385857 IRIDIUM 176 1 43923U 19002B 26146.13746114 .00000755 00000+0 11581-3 0 9994 2 43923 86.6104 2.7631 0002236 87.4457 272.7016 14.72252927396009 IRIDIUM 168 1 43924U 19002C 26146.15253400 .00000083 00000+0 22466-4 0 9997 2 43924 86.3987 2.8867 0002152 87.2865 272.8577 14.34218040385812 IRIDIUM 173 1 43925U 19002D 26146.13984909 .00000049 00000+0 10492-4 0 9999 2 43925 86.3981 2.7816 0002265 86.0838 274.0617 14.34217855385791 IRIDIUM 169 1 43926U 19002E 26146.20306370 .00000305 00000+0 93122-4 0 9994 2 43926 86.4244 34.3828 0002599 73.1759 286.9725 14.38609184387066 IRIDIUM 172 1 43927U 19002F 26146.13350467 .00000038 00000+0 64836-5 0 9997 2 43927 86.3982 2.7921 0002234 89.0941 271.0511 14.34216927385806 IRIDIUM 175 1 43928U 19002G 26146.16429889 .00000322 00000+0 89080-4 0 9999 2 43928 86.4492 299.7305 0001503 334.0087 26.1038 14.43598515395800 IRIDIUM 171 1 43929U 19002H 26146.11447701 .00000123 00000+0 37004-4 0 9996 2 43929 86.3991 3.1040 0002102 83.7419 276.4016 14.34218577385790 IRIDIUM 170 1 43930U 19002J 26146.07566622 .00000742 00000+0 11371-3 0 9992 2 43930 86.6104 2.7916 0002379 89.9557 270.1932 14.72255669396004 IRIDIUM 167 1 43931U 19002K 26146.10813489 .00000078 00000+0 20753-4 0 9990 2 43931 86.3983 2.8251 0002040 78.5135 281.6290 14.34218152385793 IRIDIUM 181 1 56726U 23068S 26146.26769722 .00000336 00000+0 93806-4 0 9996 2 56726 86.4507 65.9513 0002149 90.1575 269.9872 14.43311780159279 IRIDIUM 177 1 56727U 23068T 26145.47320568 .00000851 00000+0 10850-3 0 9999 2 56727 86.1960 339.5828 0002572 85.6343 274.5172 14.80241204163006 IRIDIUM 174 1 56728U 23068U 26146.13125327 .00000792 00000+0 12163-3 0 9993 2 56728 86.6112 2.9134 0002606 87.1106 273.0409 14.72256393162770 IRIDIUM 178 1 56729U 23068V 26146.20594930 .00001017 00000+0 13038-3 0 9995 2 56729 86.6558 34.5448 0002396 88.6688 271.4809 14.80240160163110 IRIDIUM 179 1 56730U 23068W 26146.20057679 .00001050 00000+0 13476-3 0 9994 2 56730 86.6795 43.4611 0002340 81.9350 278.2138 14.80241690163116